BADR-4

Last updated on Sun Oct 06 2024 00:02:38 GMT+0000 (Coordinated Universal Time)

1 29526U 06051A 24279.54610597 .00000156 00000+0 00000+0 0 9997 2 29526 0.3958 84.9049 0005068 161.2772 351.3714 1.00273773 45058
UTC large
Height (km)
Speed (km/s)
/
Latitude / Longitude
Inclination (degrees)
Orbital Period (minutes)
Azimuth
Elevation
Range (km)
Doppler Factor

Next 0 passes for location: London (51.5072 / 0.1276)

Sorry there are no passes over London.